Location: Cactus School
(34.5700°N, 118.0931°W)
Time: 08:02:59
(UTC-08:00)

Tiros 1 - Pass Details

Date: 26 November 2019
Orbit: 630 x 664 km, 48.4° (Epoch: 10 December)

Event Time Altitude Azimuth Distance (km) Brightness Sun altitude
Rises 13:21:37 0° 292° (WNW) 2,917 10.6 29.4°
Reaches altitude 10° 13:24:51 10° 315° (NW) 2,008 9.6 29.1°
Maximum altitude 13:27:34 15° 352° (N) 1,683 9.0 28.8°
Drops below altitude 10° 13:30:18 10° 28° (NNE) 2,009 9.2 28.5°
Sets 13:33:32 0° 52° (NE) 2,919 10.0 28.2°
